Find Gao Fen 12-02

NORAD ID: 48079 Int'l Des: 2021-026 Owner: ZLZB Country: CN operational
LEOCIRCULARRETROGRADESSO

現在のビュー

3D地球を読み込み中...

About Gao Fen 12-02

Gao Fen 12-02 (NORAD 48079) is a satellite launched Mar 30, 2021 by ZLZB of CN. It operates in LEO, CIRCULAR, RETROGRADE, SSO orbit with a mass of 3000.00 kg.

次回通過

Passes for default location (London). Set your location on the main map for personalized predictions.

高度履歴

Loading altitude history...

軌道要素

1 48079U 21026A 26195.19623694 .00000158 00000-0 27720-4 0 9998
2 48079 97.9933 193.2680 0005770 134.8288 225.3394 14.80315579285750
Epoch: Jul 14, 2026 • Age: 10 hours

現在のステータス

高度 645.1 km
遠地点 / 近地点 N/A
速度 7.53 km/s
衛星直下点 -33.83°S, 52.23°E
打ち上げ日 Mar 30, 2021
運用期間 5.2 years
タイプ other

技術仕様

分類 Payload
質量 3000.00 kg
乾燥質量 3000.00 kg
総質量 3000.00 kg
長さ 2.00 m
直径 2.00 m
スパン 8.00 m
形状 Box + 3 Pan
製造者 SAST
バスタイプ CS-L3000B
フェーズステータス In Orbit
所有者/国 ZLZB/CN

Most Searched